Location: Kawakawa
(35.3830°S, 174.0670°E)
Time: 22:46:59
(UTC+13:00)

ISS - Pass Details

Date: 26 January 2019
Orbit: 403 x 411 km, 51.6° (Epoch: 22 February)

Event Time Altitude Azimuth Distance (km) Brightness Sun altitude
Exits shadow 05:35:04 - 358° (N) 1,767 -0.9 -11.6°
Reaches altitude 10° 05:36:00 10° 8° (N) 1,477 -1.2 -11.4°
Maximum altitude 05:38:17 17° 52° (NE) 1,112 -1.4 -11.0°
Drops below altitude 10° 05:40:35 10° 95° (E) 1,487 0.1 -10.6°
Sets 05:43:09 0° 115° (ESE) 2,355 2.2 -10.2°
